Flight Track Log - Related Links

Times and Time Zones

All times are in EDT time to prevent confusion due to time zone crossing. See the SWA378 flight status page for this flight to view local times or setup timezone preferences in your user account.

Time Position Orientation Groundspeed Altitude Reporting Facility
EDT Latitude Longitude Course Direction KTS MPH feet Rate Location/Type
Tue 11:38:59 AM 37.3833 -121.9500 138° Southeast 158 182 1,900  Level Northern Cal TRACON
Tue 11:39:59 AM 37.4333 -121.9500 360° North 228 262 4,400 1,600 Climbing Northern Cal TRACON
Tue 11:40:59 AM 37.4167 -121.8833 107° East 220 253 5,100 1,316 Climbing Northern Cal TRACON
Tue 11:41:53 AM 37.3667 -121.8333 142° Southeast 247 284 6,900 1,562 Climbing Northern Cal TRACON
Tue 11:42:12 AM 37.3583 -121.8208 130° Southeast 237 273 7,000 525 Climbing Oakland Center
Tue 11:43:13 AM 37.3122 -121.7697 139° Southeast 229 264 7,600 1,525 Climbing Oakland Center
Tue 11:44:00 AM 36.9963 -121.5318 138° Southeast  Level Estimated
Tue 11:44:14 AM 37.2589 -121.7075 137° Southeast 270 311 10,100  Level Oakland Center
Tue 11:45:16 AM 37.1942 -121.6353 138° Southeast 315 362 13,500 3,463 Climbing Oakland Center
Tue 11:46:17 AM 37.1239 -121.5561 138° Southeast 337 388 17,200 2,732 Climbing Oakland Center
Tue 11:47:19 AM 37.0456 -121.4703 139° Southeast 358 412 19,100 2,195 Climbing Oakland Center
Tue 11:48:20 AM 36.9661 -121.3822 138° Southeast 379 436 21,700 2,803 Climbing Oakland Center
Tue 11:49:21 AM 36.8639 -121.2706 139° Southeast 408 470 24,800 2,878 Climbing Oakland Center
Tue 11:50:23 AM 36.7786 -121.1792 139° Southeast 419 482 27,600 2,780 Climbing Oakland Center
Tue 11:51:24 AM 36.6908 -121.0875 140° Southeast 414 476 30,500 2,195 Climbing Oakland Center
Tue 11:52:26 AM 36.6103 -120.9886 135° Southeast 409 471 32,100 1,024 Climbing Oakland Center
Tue 11:53:27 AM 36.5886 -120.8383 100° East 433 498 32,600 439 Climbing Oakland Center
Tue 11:54:29 AM 36.5717 -120.6825 98° East 447 514 33,000 195 Climbing Oakland Center
Tue 11:55:30 AM 36.5389 -120.5406 106° East 438 504 33,000  Level Oakland Center
Tue 11:56:31 AM 36.4128 -120.4397 147° Southeast 454 522 33,000  Level Oakland Center
Tue 11:57:33 AM 36.3019 -120.3717 154° Southeast 445 512 33,000  Level Oakland Center
Tue 11:58:34 AM 36.1911 -120.3039 154° Southeast 443 510 33,000  Level Oakland Center
Tue 11:59:35 AM 36.0806 -120.2378 154° Southeast 441 507 33,000  Level Oakland Center
Tue 12:00:37 PM 35.9683 -120.1725 155° Southeast 443 510 33,000  Level Oakland Center
Tue 12:01:38 PM 35.8553 -120.1047 154° Southeast 447 514 33,000  Level Oakland Center
Tue 12:02:40 PM 35.7417 -120.0361 154° Southeast 451 519 33,000  Level Oakland Center
Tue 12:03:41 PM 35.6281 -119.9656 153° Southeast 453 521 33,000  Level Oakland Center
Tue 12:04:42 PM 35.5228 -119.8714 144° Southeast 463 533 33,000  Level Oakland Center
Tue 12:05:44 PM 35.4017 -119.8214 161° South 459 528 33,000  Level Oakland Center
Tue 12:06:45 PM 35.2783 -119.7928 169° South 450 518 33,000 -148 Level Oakland Center
Tue 12:07:46 PM 35.1583 -119.7475 163° South 453 521 32,700 -738 Descending Oakland Center
Tue 12:08:47 PM 35.0397 -119.6217 139° Southeast 471 542 31,500 -1,105 Descending Oakland Center
Tue 12:09:02 PM 35.0208 -119.6000 137° Southeast 472 543 31,300 -1,247 Descending Los Angeles Center
Tue 12:10:04 PM 34.9233 -119.4939 138° Southeast 470 541 29,900 -1,839 Descending Los Angeles Center
Tue 12:11:06 PM 34.8278 -119.3892 138° Southeast 465 535 27,500 -2,226 Descending Los Angeles Center
Tue 12:12:08 PM 34.7356 -119.2883 138° Southeast 453 521 25,300 -2,081 Descending Los Angeles Center
Tue 12:13:10 PM 34.6478 -119.1917 138° Southeast 434 499 23,200 -2,032 Descending Los Angeles Center
Tue 12:14:12 PM 34.5597 -119.1008 140° Southeast 419 482 21,100 -2,129 Descending Los Angeles Center
Tue 12:15:14 PM 34.4633 -118.9958 138° Southeast 382 440 18,800 -2,032 Descending Los Angeles Center
Tue 12:16:16 PM 34.3864 -118.9128 138° Southeast 369 425 16,900 -1,935 Descending Los Angeles Center
Tue 12:17:18 PM 34.2975 -118.8597 154° Southeast 358 412 14,800 -1,984 Descending Los Angeles Center
Tue 12:18:20 PM 34.2042 -118.8256 163° South 351 404 12,800 -1,463 Descending Los Angeles Center
Tue 12:19:21 PM 34.1131 -118.7919 163° South 342 394 11,800 -1,073 Descending Los Angeles Center
Tue 12:20:23 PM 34.0353 -118.7253 145° Southeast 313 360 10,600 -1,113 Descending Los Angeles Center
Tue 12:21:25 PM 34.0253 -118.6183 96° East 300 345 9,500 -1,152 Descending Los Angeles Center
Tue 12:22:28 PM 34.0164 -118.5244 96° East 286 329 8,200 -1,355 Descending Los Angeles Center
Tue 12:23:29 PM 34.0108 -118.4347 94° East 278 320 6,700 -1,415 Descending Los Angeles Center
Tue 12:24:31 PM 34.0217 -118.3428 82° East 276 318 5,300 -919 Descending Los Angeles Center
Tue 12:25:33 PM 34.0289 -118.2561 84° East 269 310 4,800 -677 Descending Los Angeles Center
Tue 12:26:35 PM 33.9989 -118.2203 135° Southeast 216 249 3,900 -1,161 Descending Los Angeles Center
Tue 12:27:37 PM 33.9653 -118.2739 233° Southwest 189 217 2,400 -1,258 Descending Los Angeles Center
Tue 12:28:39 PM 33.9600 -118.3308 264° West 180 207 1,300 -871 Descending Los Angeles Center
Tue 12:29:41 PM 33.9558 -118.3786 264° West 161 185 600 -532 Descending Los Angeles Center
Tue 12:30:43 PM 33.9497 -118.4306 262° West 152 175 200 -387 Descending Los Angeles Center
Tue 12:32:00 PM 33.9425 -118.4081 90° East  Level Estimated

Login

Don't have an account? Register now (free) for customized features, flight alerts, and more!